Home > Weather > Rishra > Past weeks

Flag for India Weather for the Past 2 Weeks in Rishra, West Bengal, India

Now
70 °F

Fog.


Feels Like: 70 °F
Forecast: 62 / 84 °F
Wind: 6 mph from Northeast

Location: Calcutta / Dum Dum

Current Time: Feb 7, 2016 at 9:35:14 AM

Latest Report: Feb 7, 2016 at 9:00 AM


Visibility: 1 mi

Pressure: 30.04 "Hg

Humidity: 69%

Dew point: 59 °F

Location of RishraLocation

Historic Weather in Rishra — Graph

°F

Rishra Temperature Yesterday

Maximum temperature yesterday: 81 °F (at 1:00 PM)
Minimum temperature yesterday: 61 °F (at 3:30 AM)
Average temperature yesterday: 71 °F

High & Low Weather Summary for the Past Weeks

 TemperatureHumidityPressure
High86 °F (Jan 31, 2:30 PM)100% (Jan 31, 1:30 AM)30.15 "Hg (Jan 31, 1:30 AM)
Low52 °F (Jan 24, 5:30 AM)27% (Feb 1, 1:00 PM)29.86 "Hg (Jan 27, 3:00 PM)
Average69 °F70%29.96 "Hg
* Reported Jan 23 8:30 AM — Feb 7 8:30 AM, Rishra, Weather by CustomWeather, © 2016

Note: Actual official high and low records may vary slightly from our data, if they occured in-between our weather recording intervals... More about our weather records

Advertising

Rishra Weather History for the Previous 24 Hours

 ConditionsComfort  
Time TempWeatherWind HumidityBarometerVisibility
8:30 AM
Sun, Feb 7
68 °FFog.3 mph88%30.01 "Hg1 mi
8:00 AM66 °FFog.3 mph88%30.01 "Hg1 mi
7:00 AM61 °FFog.No wind94%29.95 "Hg1 mi
6:00 AM61 °FFog.No wind94%29.95 "Hg1 mi
5:30 AM61 °FFog.No wind94%29.92 "Hg1 mi
4:30 AM61 °FFog.No wind94%29.89 "Hg1 mi
4:00 AM61 °FFog.No wind94%29.89 "Hg1 mi
3:30 AM61 °FFog.No wind94%29.89 "Hg1 mi
2:30 AM61 °FFog.No wind94%29.92 "Hg1 mi
2:00 AM63 °FFog.No wind88%29.92 "Hg1 mi
1:30 AM63 °FFog.No wind88%29.92 "Hg1 mi
1:00 AM64 °FFog.3 mph83%29.92 "Hg1 mi
12:30 AM64 °FFog.No wind83%29.92 "Hg1 mi
12:00 AM64 °FFog.No wind83%29.95 "Hg1 mi
11:30 PM
Sat, Feb 6
66 °FFog.No wind88%29.95 "Hg1 mi
11:00 PM66 °FFog.No wind88%29.95 "Hg1 mi
10:30 PM66 °FFog.No wind88%29.95 "Hg1 mi
10:00 PM68 °FFog.No wind83%29.95 "Hg1 mi
9:30 PM68 °FHaze.No wind83%29.95 "Hg1 mi
9:00 PM70 °FHaze.No wind73%29.92 "Hg1 mi
8:30 PM70 °FHaze.No wind73%29.92 "Hg1 mi
8:00 PM70 °FHaze.No wind73%29.92 "Hg1 mi
7:30 PM72 °FHaze.No wind69%29.89 "Hg1 mi
7:00 PM73 °FHaze.No wind65%29.89 "Hg1 mi
6:30 PM73 °FHaze.No wind65%29.89 "Hg1 mi
6:00 PM75 °FHaze.No wind61%29.86 "Hg1 mi
5:30 PM77 °FClear.No wind57%29.86 "Hg1 mi
5:00 PM79 °FClear.5 mph51%29.86 "Hg2 mi
4:30 PM79 °FClear.5 mph51%29.86 "Hg2 mi
4:00 PM81 °FClear.6 mph48%29.86 "Hg2 mi
3:30 PM81 °FClear.5 mph45%29.86 "Hg2 mi
3:00 PM81 °FHaze.3 mph45%29.86 "Hg2 mi
2:30 PM81 °FHaze.3 mph45%29.86 "Hg2 mi
2:00 PM81 °FHaze.5 mph42%29.89 "Hg2 mi
1:30 PM81 °FHaze.5 mph42%29.89 "Hg2 mi
1:00 PM81 °FHaze.5 mph42%29.92 "Hg2 mi
12:30 PM79 °FHaze.5 mph45%29.92 "Hg2 mi
12:00 PM79 °FHaze.5 mph45%29.95 "Hg2 mi
11:30 AM77 °FHaze.5 mph47%29.95 "Hg2 mi
11:00 AM75 °FClear.5 mph50%29.98 "Hg2 mi
10:30 AM73 °FClear.6 mph53%29.98 "Hg2 mi
9:30 AM70 °FClear.5 mph60%30.01 "Hg1 mi
9:00 AM68 °FClear.6 mph69%30.01 "Hg1 mi
Weather by CustomWeather, © 2016

See weather overviewHow to use our weather pages